Simultaneous Nadir Overpasses (SNOs) Predictions

Prediction of SNOs between NOAA-15 and METOP-C Satellite Orbit:

Table of predicted SNOs for the next 14.0 days since TLE Epoch: 11/20/2021
Index Date (NOAA-15) Time (NOAA-15) Lat,Lon (NOAA-15) SZA (NOAA-15 ) Date (METOP-C) Time (METOP-C) Lat,Lon (METOP-C) SZA (METOP-C ) Distance(km) Time Diff (sec)
1 11/26/2021 20:19:01 -81.03, 93.13 75.82 11/26/2021 20:17:54 -81.02, 93.18 75.85 1.40 67
2 11/26/2021 21:09:36 81.03, -99.49 104.20 11/26/2021 21:08:35 81.02, -99.62 104.15 2.66 61
3 11/26/2021 22:00:03 -81.03, 67.90 75.80 11/26/2021 21:59:15 -81.03, 68.06 75.81 2.79 48
4 11/26/2021 22:50:38 81.03,-124.72 104.21 11/26/2021 22:49:56 81.03,-124.73 104.19 0.44 42
5 11/26/2021 23:41:05 -81.03, 42.67 75.79 11/26/2021 23:40:37 -81.03, 42.57 75.81 1.73 28
6 11/27/2021 00:31:40 81.03,-149.96 104.23 11/27/2021 00:31:17 81.04,-149.85 104.23 1.97 23
7 11/27/2021 01:22:07 -81.03, 17.43 75.77 11/27/2021 01:21:58 -81.03, 17.45 75.77 0.69 9
8 11/27/2021 02:12:42 81.03,-175.19 104.24 11/27/2021 02:12:39 81.03,-175.34 104.22 2.59 3
9 11/27/2021 03:03:10 -81.04, -8.16 75.78 11/27/2021 03:03:20 -81.03, -8.04 75.78 2.80 10
10 11/27/2021 03:53:44 81.03, 159.58 104.25 11/27/2021 03:54:00 81.04, 159.55 104.27 1.43 16
11 11/27/2021 04:44:11 -81.03, -33.03 75.75 11/27/2021 04:44:41 -81.04, -33.15 75.74 2.51 30
12 11/27/2021 05:34:47 81.04, 133.98 104.24 11/27/2021 05:35:22 81.03, 134.06 104.26 1.74 35
13 11/27/2021 06:25:14 -81.04, -58.63 75.76 11/27/2021 06:26:03 -81.03, -58.64 75.74 1.14 49
14 11/27/2021 07:15:49 81.04, 108.74 104.26 11/27/2021 07:16:44 81.03, 108.57 104.25 3.38 55
15 11/27/2021 08:06:16 -81.04, -83.86 75.74 11/27/2021 08:07:24 -81.04, -83.76 75.70 1.68 68



Historial Predications of SNOs between NOAA-15 and METOP-C
